Hourly Data Report for February 27, 2002

SHERBROOKE A
QUEBEC

45°26'00.000" N
71°41'00.000" W
241.40 m
7028124
71610
YSC

Download Data

Hourly Data (February 2002)
Hourly Data Report for February 27, 2002
TIME
LST
Temp Definition
°C
Dew Point Definition
°C
Rel Hum Definition
%
Precip. Amount Definition
mm

Wind Dir Definition
10's deg

Wind Spd Definition
km/h
Visibility Definition
km
Stn Press Definition
kPa
Hmdx Definition


Wind Chill Definition


Weather Definition


00:00 4.7 0.4 74   28 28 15.0 97.21      
01:00 2.6 -0.1 82   27 32 15.0 97.30     Rain
02:00 1.1 -0.7 88   26 15 9.7 97.35     Rain
03:00 0.2 0.0 99   29 4 1.0 97.37      
04:00 -0.1 -0.4 98   28 7 1.0 97.37   -3 Heavy Freezing Drizzle
05:00 -0.3 -0.6 98   14 4 1.1 97.40   -2  
06:00 -0.3 -0.5 99   10 6 3.9 97.32   -2  
07:00 -0.3 -0.6 98   18 6 4.8 97.41   -2  
08:00 -0.1 -0.4 98   18 4 3.2 97.37   -1 Snow
09:00 0.1 -0.4 96   11 6 4.8 97.24     Snow, Fog
10:00 1.1 -0.4 90     0 12.9 97.22     Rain, Snow
11:00 0.6 -1.8 84     0 3.2 97.16     Snow
12:00 -0.5 -1.3 94     0 1.0 97.11     Snow
13:00 -0.4 -1.2 94   9 4 4.0 97.02   -2 Snow
14:00 -0.2 -1.1 94     0 1.6 96.87     Snow
15:00 -0.4 -0.7 98   34 6 1.0 96.80   -2 Snow
16:00 -1.5 -2.4 94   31 9 4.8 96.77   -5 Snow
17:00 -1.7 -3.0 91   30 6 9.7 96.71   -4 Snow
18:00 -1.9 -3.1 91   32 4 1.9 96.61   -3 Snow
19:00 -2.1 -2.8 95     0 1.1 96.61     Snow
20:00 -2.5 -3.6 92   28 7 6.4 96.56   -5 Snow
21:00 -3.0 -4.8 87   27 15 6.4 96.55   -8 Snow
22:00 -3.8 -5.3 89   26 15 3.2 96.56   -9 Snow
23:00 -3.9 -5.5 89   26 17 1.9 96.49   -10 Snow

Notes on Data Quality.

Legend

  • E = Estimated
  • M = Missing
  • NA = Not Available*
  • [empty] = Indicates an unobserved value
Date modified: